GW0058 Weather Reports


Display with metric or nautical units.
time (UTC)temp
F
wind
direction
speed
MPH
gust
MPH
rain 1hr
in
rain 24hr
in
rain mn
in
humidity
%
barometer
mb
20260905144046 83 176 3.0 10.0 0.00 0.00 0.00 78 1016.1
20260905143548 83 173 2.0 5.0 0.00 0.00 0.00 80 1016.1
20260905143105 81 150 2.0 6.0 0.00 0.00 0.00 82 1016.2
20260905142547 80 205 2.0 6.0 0.00 0.00 0.00 84 1016.1
20260905142048 80 182 2.0 7.0 0.00 0.00 0.00 85 1016.2
20260905141558 80 158 3.0 7.0 0.00 0.00 0.00 86 1016.1
20260905141052 79 212 3.0 7.0 0.00 0.00 0.00 88 1016.0
20260905140551 79 225 2.0 5.0 0.00 0.00 0.00 89 1015.9
20260905135546 78 166 3.0 8.0 0.00 0.00 0.00 93 1015.9
20260905135047 77 143 3.0 7.0 0.00 0.00 0.00 93 1015.9
20260905134602 77 158 2.0 5.0 0.00 0.00 0.00 94 1015.8
20260905134047 76 138 1.0 5.0 0.00 0.00 0.00 94 1015.8
20260905133548 75 144 0.0 2.0 0.00 0.00 0.00 94 1015.8
20260905133101 75 0 0.0 1.0 0.00 0.00 0.00 93 1015.8
20260905132549 74 0 0.0 0.0 0.00 0.00 0.00 93 1015.8
20260905132047 74 0 0.0 0.0 0.00 0.00 0.00 93 1015.8
20260905131603 73 0 0.0 0.0 0.00 0.00 0.00 93 1015.7
20260905131048 73 0 0.0 0.0 0.00 0.00 0.00 93 1015.6
20260905130548 73 0 0.0 0.0 0.00 0.00 0.00 92 1015.5
20260905130053 73 0 0.0 0.0 0.00 0.00 0.00 92 1015.4
20260905125549 73 0 0.0 0.0 0.00 0.00 0.00 92 1015.4
20260905125046 72 0 0.0 0.0 0.00 0.00 0.00 92 1015.3
20260905124550 73 0 0.0 0.0 0.00 0.00 0.00 92 1015.1
20260905124049 73 0 0.0 0.0 0.00 0.00 0.00 92 1015.1
20260905123550 73 0 0.0 0.0 0.00 0.00 0.00 92 1015.1
20260905123102 73 0 0.0 0.0 0.00 0.00 0.00 92 1015.0
20260905122553 73 0 0.0 0.0 0.00 0.00 0.00 91 1015.0
20260905122049 73 0 0.0 0.0 0.00 0.00 0.00 91 1014.8
20260905121601 73 0 0.0 0.0 0.00 0.00 0.00 91 1014.8
20260905121048 73 0 0.0 0.0 0.00 0.00 0.00 91 1014.8
20260905120549 73 0 0.0 0.0 0.00 0.00 0.00 91 1014.7
20260905120054 73 0 0.0 0.0 0.00 0.00 0.00 91 1014.8
20260905115549 74 0 0.0 0.0 0.00 0.00 0.00 91 1014.7
20260905115050 74 0 0.0 0.0 0.00 0.00 0.00 92 1014.8
20260905114559 74 0 0.0 0.0 0.00 0.00 0.00 91 1014.9
20260905114052 74 0 0.0 0.0 0.00 0.00 0.00 91 1014.8
20260905113549 74 0 0.0 0.0 0.00 0.00 0.00 92 1014.8
20260905113056 74 0 0.0 0.0 0.00 0.00 0.00 91 1014.7
20260905112549 74 0 0.0 0.0 0.00 0.00 0.00 91 1014.6
20260905112048 74 0 0.0 0.0 0.00 0.00 0.00 91 1014.6
20260905111641 74 0 0.0 0.0 0.00 0.00 0.00 91 1014.6
20260905111047 74 0 0.0 0.0 0.00 0.00 0.00 91 1014.6
20260905110550 74 0 0.0 0.0 0.00 0.00 0.00 90 1014.5
20260905110052 74 0 0.0 0.0 0.00 0.00 0.00 90 1014.5
20260905105550 74 0 0.0 0.0 0.00 0.00 0.00 90 1014.5
20260905105050 74 0 0.0 0.0 0.00 0.00 0.00 90 1014.4
20260905104604 74 0 0.0 0.0 0.00 0.00 0.00 90 1014.4
20260905104053 74 0 0.0 0.0 0.00 0.00 0.00 89 1014.4
20260905103550 74 0 0.0 0.0 0.00 0.00 0.00 89 1014.4
20260905103104 74 0 0.0 0.0 0.00 0.00 0.00 89 1014.3
20260905102546 74 0 0.0 0.0 0.00 0.00 0.00 89 1014.2
20260905102046 74 0 0.0 0.0 0.00 0.00 0.00 89 1014.3
20260905101605 74 0 0.0 0.0 0.00 0.00 0.00 89 1014.4
20260905101051 75 0 0.0 0.0 0.00 0.00 0.00 89 1014.3
20260905100550 75 0 0.0 0.0 0.00 0.00 0.00 88 1014.3
20260905100105 75 0 0.0 0.0 0.00 0.00 0.00 88 1014.3
20260905095546 75 0 0.0 0.0 0.00 0.00 0.00 88 1014.4
20260905095050 75 0 0.0 0.0 0.00 0.00 0.00 88 1014.2
20260905094601 75 0 0.0 0.0 0.00 0.00 0.00 88 1014.3
20260905094051 75 0 0.0 0.0 0.00 0.00 0.00 88 1014.3
20260905093550 75 0 0.0 0.0 0.00 0.00 0.00 88 1014.3
20260905093101 75 0 0.0 0.0 0.00 0.00 0.00 87 1014.3
20260905092550 75 0 0.0 0.0 0.00 0.00 0.00 87 1014.3
20260905092050 75 0 0.0 0.0 0.00 0.00 0.00 87 1014.3
20260905091602 75 0 0.0 0.0 0.00 0.00 0.00 87 1014.4
20260905091051 76 0 0.0 0.0 0.00 0.00 0.00 87 1014.4
20260905090554 76 0 0.0 0.0 0.00 0.00 0.00 86 1014.4
20260905090057 76 0 0.0 0.0 0.00 0.00 0.00 86 1014.5
20260905085547 76 0 0.0 0.0 0.00 0.00 0.00 86 1014.5
20260905085050 76 0 0.0 0.0 0.00 0.00 0.00 86 1014.5
20260905084606 76 0 0.0 0.0 0.00 0.00 0.00 86 1014.4
20260905084048 76 0 0.0 0.0 0.00 0.00 0.00 86 1014.5
20260905083555 76 0 0.0 0.0 0.00 0.00 0.00 86 1014.6
20260905083100 76 0 0.0 0.0 0.00 0.00 0.00 86 1014.5
20260905082550 76 0 0.0 0.0 0.00 0.00 0.00 86 1014.5
20260905082046 76 0 0.0 0.0 0.00 0.00 0.00 86 1014.6
20260905081601 76 0 0.0 0.0 0.00 0.00 0.00 85 1014.6
20260905081046 76 0 0.0 1.0 0.00 0.00 0.00 85 1014.7
20260905080547 76 0 0.0 1.0 0.00 0.00 0.00 85 1014.7
20260905080117 76 144 0.0 1.0 0.00 0.00 0.00 85 1014.7
20260905075550 77 0 0.0 2.0 0.00 0.00 0.00 85 1014.7
20260905075049 77 0 0.0 2.0 0.00 0.00 0.00 85 1014.6
20260905074554 77 0 0.0 2.0 0.00 0.00 0.00 85 1014.7
20260905074046 77 144 0.0 2.0 0.00 0.00 0.00 85 1014.8
20260905073546 77 0 0.0 0.0 0.00 0.00 0.00 84 1015.0
20260905073056 77 0 0.0 0.0 0.00 0.00 0.00 84 1015.0
20260905072547 77 0 0.0 2.0 0.00 0.00 0.00 84 1015.0
20260905072047 77 0 0.0 3.0 0.00 0.00 0.00 84 1015.0
20260905071559 77 153 0.0 3.0 0.00 0.00 0.00 84 1015.0
20260905071109 77 146 1.0 5.0 0.00 0.00 0.00 84 1015.1
20260905070549 77 0 1.0 5.0 0.00 0.00 0.00 84 1015.1
20260905065551 77 148 1.0 5.0 0.00 0.00 0.00 83 1015.1
20260905065046 78 165 0.0 4.0 0.00 0.00 0.00 83 1015.1
20260905064558 78 153 1.0 4.0 0.00 0.00 0.00 83 1015.1
20260905064047 78 121 1.0 4.0 0.00 0.00 0.00 83 1015.2
20260905063546 78 167 1.0 4.0 0.00 0.00 0.00 82 1015.3
20260905063055 78 144 0.0 5.0 0.00 0.00 0.00 82 1015.3
20260905062546 78 146 2.0 5.0 0.00 0.00 0.00 82 1015.3
20260905062049 78 159 1.0 3.0 0.00 0.00 0.00 82 1015.3
20260905061603 78 160 1.0 5.0 0.00 0.00 0.00 82 1015.3
20260905061045 78 153 1.0 5.0 0.00 0.00 0.00 81 1015.2
20260905060546 78 134 1.0 5.0 0.00 0.00 0.00 81 1015.2
20260905060105 78 147 1.0 4.0 0.00 0.00 0.00 81 1015.2
20260905055546 78 144 1.0 4.0 0.00 0.00 0.00 81 1015.2
20260905055050 78 159 1.0 4.0 0.00 0.00 0.00 81 1015.1
20260905054558 78 167 1.0 4.0 0.00 0.00 0.00 81 1015.1
20260905054046 78 0 2.0 6.0 0.00 0.00 0.00 80 1015.2
20260905053547 78 154 1.0 6.0 0.00 0.00 0.00 80 1015.3
20260905053108 78 150 1.0 6.0 0.00 0.00 0.00 80 1015.2
20260905052549 78 0 2.0 6.0 0.00 0.00 0.00 80 1015.1
20260905052046 79 141 1.0 6.0 0.00 0.00 0.00 80 1015.0
20260905051558 79 132 1.0 5.0 0.00 0.00 0.00 80 1015.1
20260905051046 79 153 1.0 5.0 0.00 0.00 0.00 79 1015.1
20260905050546 79 132 1.0 4.0 0.00 0.00 0.00 79 1015.2
20260905050109 79 136 1.0 4.0 0.00 0.00 0.00 79 1015.3
20260905045548 79 0 0.0 3.0 0.00 0.00 0.00 78 1015.4
20260905045050 79 136 0.0 3.0 0.00 0.00 0.00 78 1015.4
20260905044558 79 146 0.0 3.0 0.00 0.00 0.00 77 1015.3
20260905044046 79 155 0.0 3.0 0.00 0.00 0.00 77 1015.3
20260905043550 79 138 0.0 3.0 0.00 0.00 0.00 77 1015.3
20260905043059 79 136 0.0 2.0 0.00 0.00 0.00 76 1015.3
20260905042546 79 0 0.0 2.0 0.00 0.00 0.00 76 1015.5
20260905042046 79 140 0.0 2.0 0.00 0.00 0.00 75 1015.4
20260905041606 79 0 0.0 3.0 0.00 0.00 0.00 75 1015.4
20260905041046 79 0 0.0 3.0 0.00 0.00 0.00 74 1015.3
20260905040550 80 0 0.0 2.0 0.00 0.00 0.00 74 1015.3
20260905040104 80 133 0.0 2.0 0.00 0.00 0.00 73 1015.2
20260905035552 80 0 0.0 2.0 0.00 0.00 0.00 73 1015.3
20260905035050 80 0 0.0 1.0 0.00 0.00 0.00 73 1015.0
20260905034617 80 0 0.0 2.0 0.00 0.00 0.00 72 1015.1
20260905034047 80 98 0.0 2.0 0.00 0.00 0.00 72 1015.1
20260905033546 80 0 0.0 2.0 0.00 0.00 0.00 72 1015.1
20260905033118 80 0 0.0 4.0 0.00 0.00 0.00 71 1015.1
20260905032546 80 0 1.0 4.0 0.00 0.00 0.00 71 1014.9
20260905032049 80 0 0.0 4.0 0.00 0.00 0.00 71 1015.0
20260905031613 80 0 0.0 4.0 0.00 0.00 0.00 70 1015.0
20260905031045 80 0 0.0 4.0 0.00 0.00 0.00 70 1015.0
20260905030548 80 132 0.0 4.0 0.00 0.00 0.00 69 1015.0
20260905030100 80 126 0.0 4.0 0.00 0.00 0.00 69 1014.8
20260905025546 80 0 0.0 3.0 0.00 0.00 0.00 69 1014.9
20260905025046 81 101 0.0 2.0 0.00 0.00 0.00 68 1014.8
20260905024604 81 0 0.0 2.0 0.00 0.00 0.00 68 1014.6
20260905024046 81 0 0.0 1.0 0.00 0.00 0.00 67 1014.5
20260905023546 81 0 0.0 1.0 0.00 0.00 0.00 67 1014.4
20260905023126 82 0 0.0 1.0 0.00 0.00 0.00 66 1014.3
20260905022546 82 0 0.0 1.0 0.00 0.00 0.00 66 1014.3
20260905022046 82 0 0.0 0.0 0.00 0.00 0.00 65 1014.3
20260905021600 82 0 0.0 1.0 0.00 0.00 0.00 65 1014.3
20260905021050 82 0 0.0 1.0 0.00 0.00 0.00 65 1014.3
20260905020550 83 0 0.0 1.0 0.00 0.00 0.00 65 1014.2
20260905020056 83 0 0.0 1.0 0.00 0.00 0.00 64 1014.1
20260905015546 83 0 0.0 2.0 0.00 0.00 0.00 64 1014.1
20260905015046 83 0 0.0 2.0 0.00 0.00 0.00 64 1014.1
20260905014553 83 0 0.0 2.0 0.00 0.00 0.00 63 1014.2
20260905014046 84 0 0.0 2.0 0.00 0.00 0.00 63 1014.1
20260905013547 84 0 0.0 2.0 0.00 0.00 0.00 63 1014.1
20260905013057 84 0 0.0 3.0 0.00 0.00 0.00 63 1014.1
20260905012549 84 127 0.0 4.0 0.00 0.00 0.00 63 1014.0
20260905012050 84 53 0.0 4.0 0.00 0.00 0.00 62 1014.0
20260905011559 84 146 0.0 3.0 0.00 0.00 0.00 62 1013.9
20260905011048 85 0 0.0 3.0 0.00 0.00 0.00 62 1013.9
20260905010547 85 101 0.0 8.0 0.00 0.00 0.00 62 1013.9
20260905010112 85 0 2.0 8.0 0.00 0.00 0.00 62 1013.9
20260905005546 85 165 2.0 8.0 0.00 0.00 0.00 62 1013.8
20260905005047 85 180 3.0 8.0 0.00 0.00 0.00 62 1013.8
20260905004553 86 111 1.0 8.0 0.00 0.00 0.00 62 1013.8
20260905004046 86 151 1.0 6.0 0.00 0.00 0.00 61 1013.8
20260905003546 87 78 1.0 6.0 0.00 0.00 0.00 59 1013.8
20260905003110 87 144 2.0 7.0 0.00 0.00 0.00 55 1013.7
20260905002545 87 155 2.0 7.0 0.00 0.00 0.00 52 1013.6
20260905002050 87 180 1.0 4.0 0.00 0.00 0.00 51 1013.5
20260905001558 88 145 1.0 10.0 0.00 0.00 0.00 51 1013.4
20260905001046 88 145 1.0 10.0 0.00 0.00 0.00 50 1013.3
20260905000547 89 167 4.0 10.0 0.00 0.00 0.00 49 1013.3
20260905000111 89 128 1.0 9.0 0.00 0.00 0.00 47 1013.1
20260904235546 89 163 4.0 9.0 0.00 0.00 0.00 46 1013.2
20260904235046 89 182 4.0 8.0 0.00 0.00 0.00 44 1013.2
20260904234555 90 178 3.0 8.0 0.00 0.00 0.00 41 1013.2
20260904234046 90 110 3.0 10.0 0.00 0.00 0.00 38 1013.1
20260904233548 90 178 4.0 10.0 0.00 0.00 0.00 37 1013.0
20260904233101 90 148 3.0 10.0 0.00 0.00 0.00 39 1013.0
20260904232546 90 101 4.0 10.0 0.00 0.00 0.00 41 1013.0
20260904232050 91 167 4.0 10.0 0.00 0.00 0.00 43 1013.1
20260904231558 91 74 3.0 10.0 0.00 0.00 0.00 44 1013.1
20260904231050 91 161 3.0 7.0 0.00 0.00 0.00 45 1013.3
20260904230550 91 174 2.0 10.0 0.00 0.00 0.00 45 1013.3
20260904230111 91 94 2.0 10.0 0.00 0.00 0.00 46 1013.2
20260904225547 90 120 3.0 9.0 0.00 0.00 0.00 51 1013.3
20260904225046 90 135 4.0 9.0 0.00 0.00 0.00 52 1013.4
20260904224555 91 153 3.0 10.0 0.00 0.00 0.00 51 1013.4
20260904224047 91 78 3.0 10.0 0.00 0.00 0.00 50 1013.3
20260904223546 90 86 4.0 9.0 0.00 0.00 0.00 52 1013.5
20260904223102 91 87 4.0 11.0 0.00 0.00 0.00 51 1013.6
20260904222549 90 183 4.0 11.0 0.00 0.00 0.00 53 1013.6
20260904222046 91 140 3.0 8.0 0.00 0.00 0.00 52 1013.6
20260904221606 90 156 2.0 9.0 0.00 0.00 0.00 55 1013.7
20260904221046 90 142 4.0 9.0 0.00 0.00 0.00 56 1013.7
20260904220548 91 84 4.0 8.0 0.00 0.00 0.00 55 1013.6
20260904220104 90 152 3.0 10.0 0.00 0.00 0.00 55 1013.6
20260904215546 92 169 3.0 10.0 0.00 0.00 0.00 53 1013.6
20260904215047 91 115 3.0 10.0 0.00 0.00 0.00 54 1013.7
20260904214558 91 132 4.0 13.0 0.00 0.00 0.00 53 1013.6
20260904214046 91 84 5.0 13.0 0.00 0.00 0.00 52 1013.7
20260904213546 90 140 5.0 11.0 0.00 0.00 0.00 54 1013.8
20260904213100 90 177 5.0 11.0 0.00 0.00 0.00 54 1013.9
20260904212550 90 164 4.0 10.0 0.00 0.00 0.00 55 1013.9
20260904212050 90 175 4.0 10.0 0.00 0.00 0.00 56 1013.9
20260904211555 89 135 4.0 10.0 0.00 0.00 0.00 56 1014.0
20260904211046 89 163 5.0 10.0 0.00 0.00 0.00 58 1014.1
20260904210546 89 148 5.0 10.0 0.00 0.00 0.00 59 1014.2
20260904210101 89 150 2.0 9.0 0.00 0.00 0.00 58 1014.3
20260904205547 88 132 2.0 8.0 0.00 0.00 0.00 59 1014.3
20260904205046 89 150 1.0 10.0 0.00 0.00 0.00 58 1014.3
20260904204600 88 59 4.0 10.0 0.00 0.00 0.00 58 1014.5
20260904204050 89 182 2.0 8.0 0.00 0.00 0.00 58 1014.5
20260904203550 88 142 3.0 12.0 0.00 0.00 0.00 56 1014.5
20260904203057 89 170 5.0 12.0 0.00 0.00 0.00 57 1014.5
20260904202546 89 118 1.0 11.0 0.00 0.00 0.00 56 1014.5
20260904202046 90 133 3.0 11.0 0.00 0.00 0.00 54 1014.6
20260904201607 90 126 5.0 11.0 0.00 0.00 0.00 52 1014.6
20260904201046 90 171 3.0 11.0 0.00 0.00 0.00 55 1014.6
20260904200546 89 117 6.0 11.0 0.00 0.00 0.00 53 1014.6
20260904200104 89 103 5.0 12.0 0.00 0.00 0.00 54 1014.6
20260904195547 89 136 5.0 12.0 0.00 0.00 0.00 54 1014.7
20260904195049 90 180 6.0 11.0 0.00 0.00 0.00 58 1014.8
20260904194558 89 190 4.0 11.0 0.00 0.00 0.00 60 1014.9
20260904194050 89 164 4.0 11.0 0.00 0.00 0.00 59 1014.9
20260904193550 89 176 4.0 10.0 0.00 0.00 0.00 57 1015.0
20260904193058 90 185 3.0 10.0 0.00 0.00 0.00 55 1015.0
20260904192546 89 144 3.0 8.0 0.00 0.00 0.00 55 1015.0
20260904192050 89 164 3.0 8.0 0.00 0.00 0.00 57 1015.1
20260904191553 90 183 3.0 8.0 0.00 0.00 0.00 59 1015.3
20260904191049 88 149 4.0 7.0 0.00 0.00 0.00 62 1015.3
20260904190550 87 138 2.0 9.0 0.00 0.00 0.00 64 1015.3
20260904185546 87 161 4.0 9.0 0.00 0.00 0.00 64 1015.5
20260904185048 87 123 3.0 11.0 0.00 0.00 0.00 64 1015.6
20260904184559 87 131 3.0 11.0 0.00 0.00 0.00 63 1015.6
20260904184049 87 150 3.0 9.0 0.00 0.00 0.00 63 1015.6
20260904183548 87 105 3.0 10.0 0.00 0.00 0.00 66 1015.7
20260904183113 87 167 4.0 10.0 0.00 0.00 0.00 65 1015.7
20260904182546 87 130 4.0 9.0 0.00 0.00 0.00 66 1015.8
20260904182047 86 126 3.0 10.0 0.00 0.00 0.00 67 1015.9
20260904181559 86 155 3.0 10.0 0.00 0.00 0.00 66 1015.9
20260904181046 86 165 4.0 8.0 0.00 0.00 0.00 68 1015.9
20260904180547 86 150 3.0 8.0 0.00 0.00 0.00 67 1016.0
20260904175548 86 104 5.0 12.0 0.00 0.00 0.00 68 1016.1
20260904175048 86 121 2.0 10.0 0.00 0.00 0.00 68 1016.1
20260904174601 86 214 3.0 10.0 0.00 0.00 0.00 68 1016.1
20260904174047 85 182 4.0 10.0 0.00 0.00 0.00 68 1016.1
20260904173548 85 132 2.0 8.0 0.00 0.00 0.00 69 1016.1
20260904173101 85 173 3.0 8.0 0.00 0.00 0.00 69 1016.1
20260904172548 85 148 4.0 8.0 0.00 0.00 0.00 69 1016.1
20260904172047 85 193 3.0 8.0 0.00 0.00 0.00 70 1016.2
20260904171614 85 147 2.0 9.0 0.00 0.00 0.00 70 1016.2
20260904171046 85 245 3.0 10.0 0.00 0.00 0.00 71 1016.1
20260904170548 85 230 3.0 10.0 0.00 0.00 0.00 72 1016.2
20260904170105 84 169 5.0 9.0 0.00 0.00 0.00 73 1016.3
20260904165547 84 226 3.0 9.0 0.00 0.00 0.00 73 1016.3
20260904165047 84 206 4.0 9.0 0.00 0.00 0.00 74 1016.4
20260904164619 84 190 4.0 9.0 0.00 0.00 0.00 74 1016.3
20260904164046 83 152 4.0 9.0 0.00 0.00 0.00 75 1016.4
20260904163548 83 200 3.0 9.0 0.00 0.00 0.00 75 1016.3
20260904163057 83 236 4.0 9.0 0.00 0.00 0.00 77 1016.4
20260904162548 83 142 3.0 7.0 0.00 0.00 0.00 79 1016.3
20260904162048 82 167 2.0 7.0 0.00 0.00 0.00 79 1016.4
20260904161600 82 180 2.0 8.0 0.00 0.00 0.00 80 1016.4
20260904161048 82 157 3.0 9.0 0.00 0.00 0.00 80 1016.4
20260904160547 81 168 3.0 9.0 0.00 0.00 0.00 81 1016.4
20260904155547 81 119 3.0 5.0 0.00 0.00 0.00 82 1016.5
20260904155046 81 202 2.0 5.0 0.00 0.00 0.00 84 1016.5
20260904154601 81 171 2.0 5.0 0.00 0.00 0.00 84 1016.5
20260904154046 80 184 2.0 5.0 0.00 0.00 0.00 85 1016.6
20260904153551 80 142 0.0 3.0 0.00 0.00 0.00 85 1016.5
20260904153112 80 0 0.0 4.0 0.00 0.00 0.00 86 1016.7
20260904152547 80 0 1.0 5.0 0.00 0.00 0.00 86 1016.6
20260904152047 79 144 1.0 5.0 0.00 0.00 0.00 86 1016.5
20260904151602 79 130 0.0 4.0 0.00 0.00 0.00 87 1016.5
20260904151046 79 145 1.0 4.0 0.00 0.00 0.00 87 1016.5
20260904150546 79 158 2.0 5.0 0.00 0.00 0.00 88 1016.5
20260904145546 79 153 1.0 5.0 0.00 0.00 0.00 89 1016.4
20260904145049 79 0 0.0 4.0 0.00 0.00 0.00 89 1016.5
20260904144603 78 0 1.0 8.0 0.00 0.00 0.00 89 1016.5